Zurück zum Katalog

STARLINK-33895

AktivKommunikationVLEO
NORAD 63934·PAYLOAD·🇺🇸 United States

Gestartet May 13, 2025 von Vandenberg Space Force Base

Loading…

Nächste Überflüge (nächste 24 Stunden)

TLE

AktuellSource: CelesTrak SupGP

Epoche: Sep 14, 2026, 22:33 UTC

1 63934C 25098J   26257.94006944 -.00006110  00000+0 -21270-3 0  2578
2 63934  70.0001 155.4309 0003291 263.1052 217.9309 15.29559054    13

Verfolge STARLINK-33895 in Echtzeit mit AllMySat

Download on the App Store